DELTA 1 DEB, 3126

Orbit data source: Space-Track

DELTA 1 DEB, 3126 is space debris in LEO originally from a launch on Thu, 11 Jan 1968 UTC launched from the Air Force Western Test Range (AFWTR). Debris objects in space refer to the collection of defunct objects orbiting the Earth. Examples of debris include non-operational satellites, rocket bodies, and fragments generated from explosions, collisions, or faulty payload assembly.

Loading next visibility...
Identifier
3126, 1968-002C
Orbit
LEO
Country
Flag of USUS
Related business
Manufacturer
Unknown
Mission
Spacecraft
Bus & Motor
Unknown
Mass
Unknown
Launch date (UTC)
1968-01-11 (58 years ago)
Launch vehicle
Unknown
Launch site
Air Force Western Test Range (AFWTR)
Object type
Payload
Rocket body
Debris
Shape & HBR
Unknown
Radar Cross Section
Small (<0.1 m²)

Expand to show TLE details & history
Last TLE update: 6 days ago

TLE from 6 days ago
0 DELTA 1 DEB
1 03126U 68002C   25236.74075904 -.00000070  00000-0  30302-4 0  9992
2 03126 106.0772  56.3325 0322449 271.4547 106.8402 12.82448952696282
Epoch: 2025-08-24T17:46Z
TLE epoch observation values (Epoch: 2025-08-24T17:46:41.581Z)
Latitude
20.908°
Longitude
170.11257°
Altitude
1,413.014 km
Speed
7.119 km/s
True Right ascension
03h 20m 10s
True Declination
20° 48' 12"
Sunlit
Object was in daylight at epoch
Visualization orbit readout
Latitude
Unknown
Longitude
Unknown
Altitude
Unknown
Speed
Unknown
Apparent Right ascension
Unknown
Apparent Declination
Unknown
Sunlit
N/A
Visualization observer readout
Local Sidereal Time
17:54:13
Azimuth
Unknown
Elevation
Unknown
Doppler factor
Unknown
Orbital elements
Apogee altitude
1,577.972 km
Perigee altitude
1,080.912 km
Semi-major axis
7,707.579 km
Eccentricity
0.03224
Inclination
106.0772°
RAAN
56.3325°
Arg. of periapsis
271.4547°
True anomaly
110.33374°
Mean anomaly
106.8402°
Eccentric anomaly
108.59129°
Mean motion
3.2075 °/min
Orbital period
112.24 mins
BSTAR
0.000030302
Loading maneuver chart data...
Computing Atmospheric mass density...
Loading historical data...
Loading historical data...
Loading historical data...
Loading historical data...
Loading historical data...
Loading historical data...
Loading historical data...

Documentation

Showing up to 5 results
|